GW3829 Weather Reports


time (UTC)temp
C
wind
direction
speed
KPH
gust
KPH
rain 1hr
cm
rain 24hr
cm
rain mn
cm
humidity
%
barometer
mb
20260504050328 11 9 0.0 0.0 0.00 0.00 0.00 44 1010.1
20260504045825 11 18 0.0 0.0 0.00 0.00 0.00 44 1010.2
20260504045320 11 27 0.0 0.0 0.00 0.00 0.00 43 1009.9
20260504044818 11 30 0.0 0.0 0.00 0.00 0.00 42 1009.9
20260504044315 11 31 0.0 0.0 0.00 0.00 0.00 42 1009.9
20260504043812 11 37 0.0 0.0 0.00 0.00 0.00 42 1010.1
20260504043309 12 35 0.0 0.0 0.00 0.00 0.00 42 1009.5
20260504042806 12 40 0.0 0.0 0.00 0.00 0.00 42 1009.7
20260504042304 12 36 0.0 0.0 0.00 0.00 0.00 46 1009.1
20260504041759 12 27 0.0 0.0 0.00 0.00 0.00 45 1009.2
20260504041255 12 28 0.0 0.0 0.00 0.00 0.00 46 1008.9
20260504040752 12 12 0.0 0.0 0.00 0.00 0.00 46 1008.6
20260504040249 11 358 0.0 0.0 0.00 0.00 0.00 47 1008.5
20260504035745 11 357 0.0 0.0 0.00 0.00 0.00 47 1008.1
20260504035242 12 349 0.0 0.0 0.00 0.00 0.00 47 1007.9
20260504034740 12 352 0.0 0.0 0.00 0.00 0.00 45 1007.9
20260504034237 12 12 0.0 0.0 0.00 0.00 0.00 45 1007.9
20260504033734 12 355 0.0 0.0 0.00 0.00 0.00 45 1007.7
20260504033232 12 354 0.0 0.0 0.00 0.00 0.00 45 1007.7
20260504032728 12 346 0.0 0.0 0.00 0.00 0.00 44 1007.5
20260504032226 13 15 0.0 0.0 0.00 0.00 0.00 43 1007.4
20260504031722 13 13 0.0 0.0 0.00 0.00 0.00 43 1007.3
20260504031220 13 11 0.0 0.0 0.00 0.00 0.00 43 1007.1
20260504030715 13 3 0.0 0.0 0.00 0.00 0.00 42 1007.1
20260504030213 13 3 0.0 0.0 0.00 0.00 0.00 41 1007.1
20260504025709 14 26 0.0 0.0 0.00 0.00 0.00 40 1007.0
20260504025206 14 28 0.0 0.0 0.00 0.00 0.00 40 1006.9
20260504024703 15 30 0.0 0.0 0.00 0.00 0.00 39 1006.9
20260504024200 14 13 0.0 0.0 0.00 0.00 0.00 40 1006.8
20260504023656 15 19 0.0 0.0 0.00 0.00 0.00 40 1006.7
20260504023152 15 30 0.0 0.0 0.00 0.00 0.00 39 1006.8
20260504022649 15 22 0.0 0.0 0.00 0.00 0.00 39 1006.7
20260504022144 16 26 0.0 0.0 0.00 0.00 0.00 38 1006.7
20260504021643 16 35 0.0 0.0 0.00 0.00 0.00 36 1006.6
20260504021139 17 35 0.0 0.0 0.00 0.00 0.00 36 1006.5
20260504020636 17 17 0.0 0.0 0.00 0.00 0.00 35 1006.7
20260504020132 17 27 0.0 0.0 0.00 0.00 0.00 34 1006.6
20260504015629 17 29 0.0 0.0 0.00 0.00 0.00 33 1006.4
20260504015125 17 19 0.0 0.0 0.00 0.00 0.00 32 1006.5
20260504014621 18 30 0.0 0.0 0.00 0.00 0.00 32 1006.2
20260504014119 18 14 0.0 0.0 0.00 0.00 0.00 32 1006.6
20260504013616 18 10 0.0 0.0 0.00 0.00 0.00 30 1006.5
20260504013113 19 26 0.0 0.0 0.00 0.00 0.00 30 1006.4
20260504012610 20 22 0.0 0.0 0.00 0.00 0.00 29 1006.3
20260504012108 20 353 0.0 0.0 0.00 0.00 0.00 28 1006.2
20260504011604 20 329 0.0 1.6 0.00 0.00 0.00 26 1006.7
20260504011101 20 342 0.0 0.0 0.00 0.00 0.00 25 1006.3
20260504010556 21 327 0.0 0.0 0.00 0.00 0.00 25 1006.3
20260504010053 21 348 0.0 0.0 0.00 0.00 0.00 26 1006.3
20260504005549 21 345 0.0 0.0 0.00 0.00 0.00 24 1006.4
20260504005047 21 322 0.0 0.0 0.00 0.00 0.00 24 1006.4
20260504004545 21 324 0.0 0.0 0.00 0.00 0.00 24 1006.4
20260504004041 21 327 0.0 0.0 0.00 0.00 0.00 25 1006.2
20260504003537 21 336 0.0 0.0 0.00 0.00 0.00 23 1006.4
20260504003034 21 320 0.0 0.0 0.00 0.00 0.00 23 1006.5
20260504002531 21 339 0.0 0.0 0.00 0.00 0.00 24 1006.4
20260504002029 21 323 0.0 0.0 0.00 0.00 0.00 24 1006.8
20260504001527 21 352 0.0 1.6 0.00 0.00 0.00 24 1006.8
20260504001022 21 340 1.6 1.6 0.00 0.00 0.00 23 1006.8
20260504000520 21 330 0.0 0.0 0.00 0.00 0.00 23 1006.9
20260504000017 21 323 0.0 1.6 0.00 0.00 0.00 23 1006.8
20260503235515 21 327 1.6 3.2 0.00 0.00 0.00 24 1006.7
20260503235012 21 313 0.0 0.0 0.00 0.00 0.00 24 1006.8
20260503234509 21 327 0.0 0.0 0.00 0.00 0.00 24 1006.6
20260503234008 21 321 0.0 0.0 0.00 0.00 0.00 23 1006.8
20260503233504 21 352 1.6 3.2 0.00 0.00 0.00 24 1007.0
20260503233000 22 305 0.0 0.0 0.00 0.00 0.00 24 1006.8
20260503232457 21 317 0.0 0.0 0.00 0.00 0.00 23 1006.8
20260503231955 22 334 0.0 1.6 0.00 0.00 0.00 25 1007.3
20260503231452 21 290 0.0 1.6 0.00 0.00 0.00 23 1006.9
20260503230948 21 327 0.0 0.0 0.00 0.00 0.00 24 1006.9
20260503230445 22 334 1.6 3.2 0.00 0.00 0.00 23 1006.9
20260503225943 21 339 0.0 0.0 0.00 0.00 0.00 23 1007.0
20260503225439 21 342 0.0 1.6 0.00 0.00 0.00 25 1007.1
20260503224935 21 335 0.0 1.6 0.00 0.00 0.00 24 1007.4
20260503224432 21 322 0.0 0.0 0.00 0.00 0.00 24 1007.3
20260503223930 22 297 0.0 0.0 0.00 0.00 0.00 23 1007.5
20260503223427 22 307 0.0 0.0 0.00 0.00 0.00 24 1007.0
20260503222922 22 341 0.0 0.0 0.00 0.00 0.00 24 1007.1
20260503222421 21 327 0.0 1.6 0.00 0.00 0.00 24 1007.3
20260503221919 22 308 0.0 0.0 0.00 0.00 0.00 24 1007.4
20260503221417 21 2 1.6 3.2 0.00 0.00 0.00 24 1007.5
20260503220914 22 328 0.0 0.0 0.00 0.00 0.00 26 1007.5
20260503220410 22 319 0.0 1.6 0.00 0.00 0.00 23 1007.5
20260503215908 21 308 0.0 0.0 0.00 0.00 0.00 24 1007.6
20260503215404 21 349 0.0 0.0 0.00 0.00 0.00 24 1007.6
20260503214902 22 353 0.0 1.6 0.00 0.00 0.00 26 1007.7
20260503214359 22 337 0.0 1.6 0.00 0.00 0.00 24 1007.7
20260503213856 21 304 0.0 0.0 0.00 0.00 0.00 25 1007.7
20260503213354 22 342 0.0 1.6 0.00 0.00 0.00 24 1007.9
20260503212850 22 313 0.0 0.0 0.00 0.00 0.00 24 1008.0
20260503212349 21 341 0.0 0.0 0.00 0.00 0.00 27 1008.0
20260503211845 21 308 0.0 1.6 0.00 0.00 0.00 24 1008.2
20260503211342 21 271 0.0 0.0 0.00 0.00 0.00 25 1008.1
20260503210837 21 324 0.0 1.6 0.00 0.00 0.00 26 1008.0
20260503210335 21 327 1.6 3.2 0.00 0.00 0.00 25 1008.2
20260503205830 21 316 0.0 0.0 0.00 0.00 0.00 25 1008.1
20260503205327 22 303 0.0 1.6 0.00 0.00 0.00 24 1008.6
20260503204823 21 301 0.0 0.0 0.00 0.00 0.00 26 1008.5
20260503204321 21 300 0.0 0.0 0.00 0.00 0.00 25 1008.7
20260503203818 21 300 0.0 1.6 0.00 0.00 0.00 25 1008.5
20260503203315 21 345 0.0 0.0 0.00 0.00 0.00 27 1008.7
20260503202812 21 300 0.0 1.6 0.00 0.00 0.00 25 1008.7
20260503202310 21 318 0.0 0.0 0.00 0.00 0.00 25 1008.8
20260503201808 21 298 1.6 1.6 0.00 0.00 0.00 26 1008.9
20260503201305 21 311 0.0 0.0 0.00 0.00 0.00 25 1008.7
20260503200802 21 288 0.0 0.0 0.00 0.00 0.00 26 1009.0
20260503200258 20 298 0.0 0.0 0.00 0.00 0.00 26 1008.9
20260503195755 21 301 0.0 0.0 0.00 0.00 0.00 25 1008.9
20260503195251 21 345 0.0 1.6 0.00 0.00 0.00 26 1008.9
20260503194744 21 311 0.0 0.0 0.00 0.00 0.00 27 1009.2
20260503194239 21 305 0.0 1.6 0.00 0.00 0.00 25 1009.5
20260503193735 20 316 0.0 0.0 0.00 0.00 0.00 28 1009.4
20260503193231 20 300 0.0 0.0 0.00 0.00 0.00 28 1009.6
20260503192727 20 322 0.0 0.0 0.00 0.00 0.00 28 1009.6
20260503192222 20 298 0.0 0.0 0.00 0.00 0.00 30 1009.7
20260503191720 20 293 0.0 0.0 0.00 0.00 0.00 27 1009.9
20260503191217 20 331 0.0 0.0 0.00 0.00 0.00 29 1009.7
20260503190714 20 326 0.0 0.0 0.00 0.00 0.00 27 1009.6
20260503190210 20 314 0.0 0.0 0.00 0.00 0.00 29 1009.8
20260503185708 19 343 0.0 0.0 0.00 0.00 0.00 30 1009.9
20260503185203 20 315 0.0 0.0 0.00 0.00 0.00 28 1009.9
20260503184657 20 322 0.0 0.0 0.00 0.00 0.00 31 1010.2
20260503184154 19 335 0.0 0.0 0.00 0.00 0.00 31 1010.2
20260503183650 20 318 0.0 0.0 0.00 0.00 0.00 29 1010.2
20260503183148 19 295 0.0 0.0 0.00 0.00 0.00 30 1010.2
20260503182646 19 350 0.0 1.6 0.00 0.00 0.00 29 1010.1
20260503182144 19 354 0.0 0.0 0.00 0.00 0.00 31 1010.2
20260503181641 19 298 0.0 0.0 0.00 0.00 0.00 29 1010.6
20260503181138 20 322 0.0 0.0 0.00 0.00 0.00 28 1010.5
20260503180635 18 324 0.0 0.0 0.00 0.00 0.00 29 1010.6
20260503180132 18 314 0.0 0.0 0.00 0.00 0.00 27 1010.6
20260503175629 18 340 0.0 0.0 0.00 0.00 0.00 28 1010.8
20260503175126 19 302 0.0 0.0 0.00 0.00 0.00 28 1010.6
20260503174623 18 346 0.0 0.0 0.00 0.00 0.00 29 1010.9
20260503174120 18 317 0.0 0.0 0.00 0.00 0.00 29 1010.7
20260503173615 18 328 0.0 1.6 0.00 0.00 0.00 30 1011.1
20260503173112 19 327 0.0 0.0 0.00 0.00 0.00 28 1011.0
20260503172609 18 351 0.0 0.0 0.00 0.00 0.00 27 1011.0
20260503172106 18 17 0.0 0.0 0.00 0.00 0.00 30 1011.0
20260503171602 18 330 0.0 0.0 0.00 0.00 0.00 29 1011.1
20260503171059 18 344 0.0 1.6 0.00 0.00 0.00 30 1010.9
20260503170550 18 0 0.0 0.0 0.00 0.00 0.00 29 1011.1
20260503150937 16 326 0.0 1.6 0.00 0.00 0.00 34 1011.1
20260503150433 16 332 0.0 0.0 0.00 0.00 0.00 38 1010.9
20260503131326 10 257 0.0 0.0 0.00 0.00 0.00 63 1011.5
20260503130824 10 253 0.0 0.0 0.00 0.00 0.00 63 1011.7
20260503130321 10 244 0.0 0.0 0.00 0.00 0.00 64 1011.3
20260503110715 10 238 0.0 0.0 0.00 0.00 0.00 64 1011.9
20260503110212 10 249 0.0 0.0 0.00 0.00 0.00 63 1011.9
20260503100138 7 292 0.0 0.0 0.00 0.00 0.00 73 1012.8
20260503081527 6 255 0.0 0.0 0.00 0.00 0.00 73 1013.7
20260503081025 6 252 0.0 0.0 0.00 0.00 0.00 74 1013.7
20260503080520 6 242 0.0 0.0 0.00 0.00 0.00 73 1013.5
20260503072454 6 250 0.0 0.0 0.00 0.00 0.00 73 1013.8
20260503071951 6 244 0.0 0.0 0.00 0.00 0.00 73 1013.9
20260503071448 6 247 0.0 0.0 0.00 0.00 0.00 73 1013.7
20260503070944 6 245 0.0 0.0 0.00 0.00 0.00 73 1013.8
20260503070441 6 236 0.0 0.0 0.00 0.00 0.00 74 1013.8